Location: Unspecified
(50.7693°N, 0.0000°E)
Time: 16:00:16
(UTC+00:00)

A-11 Canister half - Pass Details

Date: 21 June 2019
Orbit: 1526 x 1683 km, 47.3° (Epoch: 21 July)

Event Time Altitude Azimuth Distance (km) Brightness Sun altitude
Rises 09:18:37 0° 279° (W) 4,690 11.2 48.4°
Reaches altitude 10° 09:21:42 10° 277° (W) 3,700 10.7 48.8°
Maximum altitude 09:30:46 60° 200° (SSW) 1,712 10.1 50.1°
Drops below altitude 10° 09:39:53 10° 124° (SE) 3,721 11.9 51.3°
Sets 09:43:00 0° 121° (ESE) 4,719 12.2 51.7°
